Theta_e
306 307 308 312 312 327 335 337 338 340 341 341 340 339 339 337 336 337 337 336 336 337 337 336 336 336 336 335 335 335 338 337
304 305 305 305 307 306 311 321 330 334 335 338 339 339 338 339 338 337 337 337 337 337 337 336 336 336 335 334 334 334 337 337
303 303 303 304 305 306 306 307 308 312 325 330 333 340 342 342 341 339 339 337 337 336 336 337 336 336 335 334 333 335 335 336
302 302 302 303 303 304 305 306 308 309 310 311 317 324 335 339 339 339 339 338 336 337 337 337 337 337 337 335 335 334 335 336
301 301 302 302 302 303 304 305 306 308 309 311 310 313 323 333 340 340 341 340 339 339 340 339 338 337 336 337 335 335 335 335
301 300 301 301 301 302 302 304 304 306 307 308 310 311 312 319 330 337 340 340 340 341 339 340 339 338 337 337 337 335 334 334
300 300 300 300 301 301 302 302 303 303 305 307 308 309 311 315 315 321 334 339 340 338 339 340 340 339 338 338 338 337 335 334
300 299 299 300 301 301 301 301 301 302 303 305 306 307 308 310 311 314 321 330 338 340 337 338 338 339 338 338 337 337 336 335
299 298 299 299 300 300 300 301 301 301 302 303 303 305 307 309 310 311 313 317 326 334 338 338 337 338 338 337 337 337 336 335
298 298 298 298 299 299 300 300 300 301 301 301 302 303 305 306 308 310 312 314 319 324 329 337 338 337 337 337 336 336 336 335
297 297 298 297 298 298 298 299 299 299 300 300 301 301 302 304 304 305 309 310 313 318 322 328 336 337 336 337 337 336 336 336
297 297 297 296 297 297 297 297 298 298 298 299 299 299 299 300 301 303 306 310 311 312 315 322 326 336 336 336 338 337 336 336
296 296 296 295 295 295 295 295 295 296 296 296 296 298 298 299 300 301 303 308 311 312 314 319 323 325 335 336 335 337 336 335
296 296 295 294 293 293 293 293 294 294 295 295 296 296 297 299 299 301 302 304 306 310 313 316 317 323 330 334 338 335 335 335
295 294 294 293 292 292 292 293 293 294 293 293 293 294 296 297 298 300 302 303 304 305 311 312 316 320 324 329 333 332 333 332
295 294 294 293 291 291 291 291 292 291 291 291 292 293 293 294 295 296 298 301 305 306 307 310 313 316 321 326 327 331 332 333
295 294 294 292 291 291 290 290 290 290 290 290 291 291 291 291 292 294 295 298 300 303 305 308 311 314 317 324 328 329 330 331
294 293 293 292 291 290 289 289 288 288 288 289 289 289 289 290 290 293 295 297 300 303 304 307 309 313 315 321 327 330 330 327
292 292 292 291 290 289 288 288 287 287 287 287 288 288 288 288 289 291 293 295 297 299 303 308 311 314 315 319 325 328 327 326
292 292 290 290 289 289 288 287 286 286 286 286 287 286 288 287 287 289 290 292 293 297 304 308 314 314 316 318 323 327 328 328
Wind_Speed
18 18 17 13 14 13 9 5 4 4 3 10 13 15 16 17 18 19 18 17 18 18 17 17 16 15 14 13 13 13 12 11
19 18 18 17 16 14 11 10 8 7 8 10 11 14 16 17 20 20 20 20 20 20 19 18 17 16 16 15 14 15 14 13
19 18 18 17 15 16 15 12 9 9 8 11 9 9 12 15 18 21 22 23 23 22 22 20 19 18 18 17 16 14 14 15
18 17 17 17 15 16 16 16 15 14 13 13 12 12 12 14 17 20 22 24 25 24 23 22 21 18 18 20 18 17 17 16
17 16 17 18 16 16 14 15 15 15 14 15 15 15 12 12 15 17 18 21 24 24 24 23 22 22 21 19 20 19 18 18
17 17 16 17 16 14 15 15 16 15 17 16 15 15 15 14 15 13 18 19 20 22 23 25 25 25 24 22 21 20 20 19
16 16 16 17 16 15 16 15 15 17 16 16 16 16 17 17 18 17 18 19 22 26 27 27 26 26 26 26 24 23 22 21
16 15 15 16 16 16 16 15 17 17 17 16 17 17 18 19 20 20 20 21 23 24 29 31 31 29 29 28 27 25 24 23
17 17 17 17 16 17 15 16 17 18 18 18 18 18 19 19 20 22 23 22 25 21 26 28 31 30 31 29 28 28 27 25
16 17 17 18 17 16 15 16 18 17 18 19 19 19 19 20 21 21 21 23 23 25 20 29 29 30 29 32 29 29 28 27
16 16 17 19 17 16 17 17 17 18 19 19 18 20 20 21 22 23 22 24 25 24 26 24 27 29 30 31 32 30 30 28
14 15 17 19 16 17 17 18 18 19 19 19 21 21 21 21 22 22 22 24 25 26 26 25 30 28 29 30 35 32 32 29
13 15 17 18 19 21 21 21 23 21 20 21 22 22 22 21 23 23 23 23 24 25 26 27 25 29 26 27 29 35 29 30
13 16 17 18 18 19 19 21 20 21 20 22 21 22 23 23 23 23 24 24 24 25 25 26 29 29 11 18 5 14 31 30
13 16 17 17 18 18 19 19 19 19 22 22 24 24 23 26 26 25 26 25 24 25 25 25 23 25 29 12 5 7 2 17
12 14 15 16 18 19 21 20 22 23 22 23 26 23 23 23 24 24 23 23 24 25 23 27 25 27 27 27 32 8 4 4
11 13 15 17 18 19 20 21 21 21 22 24 23 24 24 23 23 24 24 23 27 28 25 24 28 30 31 27 26 28 14 6
11 13 14 17 18 19 19 21 21 22 24 23 24 24 26 25 28 26 25 24 23 25 24 27 30 32 34 33 23 12 12 6
11 13 14 16 18 19 21 20 19 20 23 23 25 27 28 29 29 26 21 20 21 21 24 26 29 33 35 33 29 26 24 27
10 12 14 16 17 19 20 20 20 20 22 23 25 27 26 28 28 23 20 18 17 15 12 16 28 31 33 33 29 29 29 25
Wind_Direction
37 33 35 44 45 43 33 7 353 340 298 257 255 249 252 254 244 236 234 234 236 237 237 235 232 232 226 224 220 221 220 234
30 25 23 20 13 24 33 28 9 332 325 311 283 255 261 256 255 251 241 237 237 240 238 237 236 235 230 228 226 229 228 235
22 19 14 12 5 358 4 7 4 353 341 316 324 305 284 266 259 255 255 246 240 240 241 240 237 236 234 231 229 231 232 231
17 14 7 6 359 355 353 351 348 345 341 329 328 315 292 279 268 255 251 251 253 246 244 243 241 235 237 233 229 229 230 231
12 9 5 2 355 351 348 344 340 336 334 327 317 309 304 287 275 265 259 254 247 246 243 239 236 235 233 227 228 228 229 228
5 3 1 357 354 347 342 338 333 330 323 325 319 309 299 295 282 276 262 256 251 245 240 235 232 234 235 234 229 228 228 226
1 359 356 352 350 342 337 332 327 322 322 318 317 308 300 292 286 280 264 260 250 248 243 239 237 235 234 235 234 232 231 228
355 354 351 349 345 340 333 327 324 323 318 312 314 308 299 293 288 279 272 265 257 246 242 242 241 238 239 234 235 234 231 229
352 350 347 346 342 336 332 325 324 319 316 313 310 308 300 294 286 279 274 271 270 266 245 239 243 241 239 238 235 235 232 227
347 347 343 341 337 334 328 322 320 317 313 310 308 308 303 296 288 280 275 273 268 270 270 243 236 235 237 237 238 236 235 231
348 344 342 340 337 335 329 324 321 317 313 311 308 305 300 294 288 285 281 274 267 265 269 266 250 233 229 231 234 236 234 232
347 345 344 343 341 336 330 326 322 319 315 312 310 308 302 297 291 286 284 276 269 263 262 263 263 248 231 230 231 231 233 229
353 350 350 351 347 341 335 330 327 322 317 313 312 309 303 298 293 289 285 277 274 270 265 258 264 268 235 233 229 229 232 231
359 359 356 355 348 337 329 323 319 318 317 317 315 315 312 303 296 289 285 283 281 274 265 264 256 249 268 243 228 230 227 223
4 2 359 355 346 340 336 330 329 329 328 324 319 318 315 310 307 301 290 282 276 276 273 255 270 257 238 244 220 217 173 216
7 4 1 357 355 350 345 339 335 330 330 325 325 324 320 316 313 311 309 300 285 269 270 268 253 257 253 238 247 262 177 206
7 5 7 4 1 357 351 345 339 335 335 331 332 330 329 326 321 316 309 299 289 279 278 259 257 249 245 245 235 230 219 225
7 8 11 8 4 4 360 354 347 346 344 341 339 336 334 336 330 326 315 304 291 282 268 268 247 248 247 247 227 201 198 179
7 7 7 8 8 10 7 1 356 355 351 345 344 345 343 342 340 334 324 314 302 288 274 263 245 241 243 246 239 219 210 220
8 7 6 9 9 13 10 9 7 3 359 354 351 348 348 354 353 346 343 339 331 317 306 291 248 242 241 241 256 231 225 228